Main page
METAR-TAF:

Airports :

Alpine, Texas, United States

Alpine-Casparis Municipal Airport

latitude: 30-23-03N, longitude: 103-41-00W, elevation: 1376 m

Current weather observation

The report was made 19 minutes ago, at 23:55 UTC
Wind 4 kt from the Northeast
Temperature 21°C
Humidity 69%
Pressure 1019 hPa
Visibility: 16.1 km
Scattered clouds at a height of 9000 ft
Scattered clouds at a height of 12000 ft

METAR: KE38 242355Z AUTO 05004KT 10SM SCT090 SCT120 21/15 A3009 RMK AO2 LTG DSNT E AND SE T02130153 10264 20210

Time: 19:14 (00:14 UTC)


TAF: missing

METAR-TAF

Weather observations and forecasts of more than 4000 airports (METAR and TAF reports).

The available stations are represented by yellow and red dots on the map.

Hover mouse over dot to see the name of the station.

Then click to see weather observations and forecasts.

To change the map : click on the green buttons with a black cross to zoom in, on the green button with a dash to zoom out, or on the green arrows for adjacent maps.


METAR-TAF: